Etusivu
METAR-TAF:

METAR-TAF

Lentoasemat :

Delta, Utah, Yhdysvallat

Leveyspiiri: 39-22-50N, Pituuspiiri: 112-30-28W, korkeus merenpinnasta: 1451 m

Tämänhetkinen sää

Tämä raportti tehtiin 15 minuuttia sitten, kello 10.35 UTC
Tuuli 5 kn pohjoisesta
Lämpötila -5°C
Kosteus 86%
Ilmanpaine 1010 hPa
Näkyvyys: 16.1 km
selkeää

METAR: KDTA 151035Z AUTO 35005KT 10SM CLR M05/M07 A2982 RMK AO1

Aika: 03:50 (10:50 UTC)


TAF: puuttuu

Säähavainnot ja -ennusteet yli 4000 lentoasemalta (METAR- ja TAF-raportit).

Käytössä olevat sääasemat on merkitty karttaan keltaisilla ja punaisilla pisteillä.

Aseta hiiri pisteen päälle nähdäksesi sääaseman nimen.

Klikkaa sitten nähdäksesi säähavainnot ja -ennusteet.

Kartan vaihtaminen: klikkaa mustalla rastilla varustettuja vihreitä pisteitä, niin voit zoomata sisään; viivalla varustettua vihreää pistettä, niin voit zoomata ulos tai vihreitä nuolia, niin pääset viereisille kartoille.


METAR-TAF: